Location: Palau
(42.3086°N, 3.1507°E)
Time: 22:25:59
(UTC+00:00)

N. Korean satellite - Visible Passes

Search period start: 26 February 2021 00:00
Search period end: 08 March 2021 00:00
Orbit: 451 x 503 km, 97.2° (Epoch: 26 February)

Date Brightness Start Highest point End Pass type
(mag) Time Alt. Az. Time Alt. Az. Time Alt. Az.
26 Feb 9.0 04:34:08 10° NE 04:37:00 23° E 04:39:54 10° SSE visible
27 Feb 10.0 04:08:58 10° ENE 04:10:06 11° E 04:11:15 10° ESE visible
27 Feb 6.9 05:40:17 10° N 05:43:37 42° WNW 05:46:58 10° SW visible
28 Feb 6.6 05:13:25 10° NNE 05:16:56 82° ESE 05:20:29 10° S visible
01 Mar 8.3 04:46:54 10° NNE 04:50:10 34° E 04:53:27 10° SSE visible
02 Mar 9.6 04:20:58 10° NE 04:23:18 17° E 04:25:38 10° SE visible
03 Mar 6.5 05:26:28 10° N 05:29:59 65° WNW 05:33:32 10° SSW visible
04 Mar 7.4 04:59:45 10° NNE 05:03:14 53° E 05:06:45 10° S visible
05 Mar 9.0 04:33:27 10° NE 04:36:24 24° E 04:39:22 10° SSE visible
06 Mar 10.0 04:08:11 10° ENE 04:09:28 11° E 04:10:44 10° ESE visible
06 Mar 6.9 05:39:33 10° N 05:42:58 43° WNW 05:46:23 10° SW visible
07 Mar 6.6 05:12:40 10° NNE 05:16:14 81° E 05:19:52 10° S visible
